Domov               UVHVVR             MKGP            O straneh              
ZDRAVSTVENO VARSTVO RASTLIN
  MREŽA AGROMET. POSTAJ
 ► PROGNOSTIČNA OBVESTILA
AGROMETEOROLOŠKI PODATKI -
ARSO
OBVLADOVANJE TVEGANJ ZARADI
NEUGODNIH VREMENSKIH RAZMER
  ► NARAVNE NESREČE
  ► SUŠA/MOČA
  ► NAMAKANJE
  ► ŽLED (gozdarstvo)
KARTOGRAFSKI PRIKAZI
SPLETNE POVEZAVE
PROJEKTI IN PUBLIKACIJE

AGROMETEOROLOŠKA MREŽA: VREMENSKE POSTAJE IN FENOLOŠKA OPAZOVANJA

Pregled podatkov za lokacijo Bizeljsko, meteorološka postaja 38541

Pregled senzorjev na lokaciji

ID Ime Zadnja
vrednost
Datum
zadnje
spremembe
Tip
senzorja
2027 Temperatura 2 m ( °C) 16,73 °C 19.8.2017 20:00 50YA
2028 Relativna vlaga 2 m (% RH) 78,39 % RH 19.8.2017 20:00 50YA
2029 Omočenost lista (U) 2 U 19.8.2017 20:00 A730WET
2030 Padavine 0.2 mm (mm) 0 mm 19.8.2017 20:00 Rain-O-Matic

Pregled podatkov zadnjih 24 ur

Zap.
št.
Datum in čas Bizeljsko
Omočenost
lista
Padavine
0.2
mm
Relativna
vlaga
2
m
Temperatura
2
m
0 19.8.2017 19:00 2 0 78,39 16,73
1 19.8.2017 18:30 9 0 79,29 16,8
2 19.8.2017 18:00 10 0 75,24 17,39
3 19.8.2017 17:30 4 0 72,53 18,36
4 19.8.2017 17:00 3 0 71,58 18,78
5 19.8.2017 16:30 1 0 66,89 19,88
6 19.8.2017 16:00 0 0 65,98 20,66
7 19.8.2017 15:30 0 0 64,18 21,03
8 19.8.2017 15:00 0 0 61,61 21,47
9 19.8.2017 14:30 0 0 56,24 22,25
10 19.8.2017 14:00 0 0 55,46 22,61
11 19.8.2017 13:30 0 0 57 23,27
12 19.8.2017 13:00 0 0 54,16 24,15
13 19.8.2017 12:30 0 0 52,97 25,23
14 19.8.2017 12:00 0 0 48,28 27,3
15 19.8.2017 11:30 0 0 44,71 28,5
16 19.8.2017 11:00 0 0 46,08 28,28
17 19.8.2017 10:30 0 0 45,18 28,45
18 19.8.2017 10:00 0 0 47,23 27,57
19 19.8.2017 09:30 0 0 48,21 27,2
20 19.8.2017 09:00 0 0 49,26 25,98
21 19.8.2017 08:30 0 0 44,42 26,91
22 19.8.2017 08:00 0 0 47,06 26,47
23 19.8.2017 07:30 0 0 50,92 24,44
24 19.8.2017 07:00 0 0 52,01 23,42
25 19.8.2017 06:30 0 0 57,78 21,88
26 19.8.2017 06:00 0 0 60,59 20,49
27 19.8.2017 05:30 0 0 63,25 19,49
28 19.8.2017 05:00 0 0 55,82 21,29
29 19.8.2017 04:30 0 0 54,09 21,44
30 19.8.2017 04:00 0 0 52,72 21,71
31 19.8.2017 03:30 0 0 57,17 20,76
32 19.8.2017 03:00 0 0 54,21 21,37
33 19.8.2017 02:30 0 0 52,48 21,66
34 19.8.2017 02:00 0 0 52,89 21,76
35 19.8.2017 01:30 0 0 50,79 22,47
36 19.8.2017 01:00 0 0 47,94 23,2
37 19.8.2017 00:30 0 0 46,74 23,69
38 19.8.2017 00:00 0 0 43,05 24,52
39 18.8.2017 23:30 0 0 43,17 24,32
40 18.8.2017 23:00 0 0 41,29 24,54
41 18.8.2017 22:30 0 0 39,63 24,76
42 18.8.2017 22:00 0 0 39,41 24,79
43 18.8.2017 21:30 0 0 40,95 24,71
44 18.8.2017 21:00 0 0 44,44 24,13
© 2011 Ministrstvo za kmetijstvo, gozdarstvo in prehrano. Vse pravice pridržane.